Weather Roundup
Issued by NWS

Home | Current Version | Previous Version | Graphics & Text | Print | Product List | Glossary Off
Versions: 1 2 3 4 5 6 7 8 9 10 11 12 13 14 15 16 17 18 19 20 21 22 23 24 25 26 27 28 29 30 31 32 33 34 35 36 37 38 39 40 41 42 43 44 45 46 47 48 49 50

000
NZUS93 KARX 310159
HRRWXR

CURRENT HOURLY OBSERVATIONS ACROSS
MUCH OF THE UPPER MISSISSIPPI VALLEY
NATIONAL WEATHER SERVICE LA CROSSE WI
800 PM CST FRI JAN 30 2015


...SOUTHEAST MINNESOTA...


CITY           SKY/WX    TMP DP  RH WIND       PRES   REMARKS
ROCHESTER      CLEAR     21  13  71 S13       30.24F WCI   9
ROCHESTER/MAYO MOCLDY    23  12  63 S8        30.24F WCI  14
WINONA         CLEAR     19  10  68 SE5       30.30F WCI  13
AUSTIN         CLEAR     25  18  74 S9        30.23F WCI  15
ALBERT LEA     CLEAR     27  19  74 S10       30.22F WCI  17
DODGE CENTER   PTCLDY    25  19  80 S12       30.22F WCI  14
PRESTON        CLEAR     20  11  68 S14       30.26F WCI   7
OWATONNA       CLEAR     25  19  80 S8        30.23R WCI  16
FARIBAULT      CLEAR     25  19  80 S6        30.23S WCI  18
$$

...ELSEWHERE IN MINNESOTA...


CITY           SKY/WX    TMP DP  RH WIND       PRES   REMARKS
MINNEAPOLIS    PTCLDY    26  18  71 VRB6      30.23F WCI  19
INTNL FALLS    FLURRIES  13   8  81 SE3       30.13F
DULUTH         CLOUDY    15   4  61 SW7       30.17S WCI   5
RED WING       PTCLDY    21  12  68 SE3       30.25F
REDWOOD FALLS  CLEAR     29  25  85 S8        30.18F WCI  21
MANKATO        CLEAR     27  19  74 S6        30.22S WCI  20
WORTHINGTON    CLEAR     30  25  80 SW23      30.17F WCI  17
FAIRMONT       CLEAR     28  21  74 S15       30.19F WCI  17
$$

...SOUTHWEST WISCONSIN...


CITY           SKY/WX    TMP DP  RH WIND       PRES   REMARKS
LA CROSSE      CLEAR     21  10  62 SE9       30.32F WCI  11
PRAIRIE DU CHI PTCLDY    22  10  59 CALM      30.36F
BOSCOBEL       CLEAR     16   7  67 CALM      30.36F
LONE ROCK      NOT AVBL
PLATTEVILLE    CLEAR     21  13  72 SE9       30.34F WCI  11
FORT MC COY    CLEAR     11   6  81 E3        30.34F
VIROQUA        FAIR      20   9  63 S7        30.30F WCI  11
WIS DELLS      NOT AVBL
$$

...ELSEWHERE IN WISCONSIN...


CITY           SKY/WX    TMP DP  RH WIND       PRES   REMARKS
MILWAUKEE      MOCLDY    23   9  55 SW5       30.39F WCI  17
MADISON        FAIR      20   9  62 CALM      30.36F
GREEN BAY      CLOUDY    19  11  70 S5        30.34F WCI  12
EAU CLAIRE     NOT AVBL
BLACK RVR FLS  FAIR       5   1  83 CALM      30.31F
MEDFORD        CLOUDY    12   5  73 S7        30.22F WCI   2
WAUSAU         PTCLDY    15   6  67 S9        30.24F WCI   3
WIS RAPIDS     CLEAR     11   3  70 S3        30.31F
MARSHFIELD     PTCLDY    14   3  61 S7        30.27F WCI   4
RICE LAKE      CLOUDY    16   7  68 E7        30.26F WCI   6
$$

...NORTHEAST IOWA...


CITY           SKY/WX    TMP DP  RH WIND       PRES   REMARKS
DECORAH        CLEAR     23  10  58 S6        30.30F WCI  16
MASON CITY     CLEAR     24  19  81 S10       30.26F WCI  14
CHARLES CITY   CLEAR     23  16  74 S8        30.30F WCI  14
OELWEIN        CLEAR     21  16  79 S9        30.33F WCI  11
$$

...ELSEWHERE IN IOWA...


CITY           SKY/WX    TMP DP  RH WIND       PRES   REMARKS
DES MOINES     FAIR      29  15  56 S7        30.33F WCI  22
IOWA CITY      CLEAR     23  16  74 CALM      30.39F
FORT DODGE     CLEAR     30  18  59 S12       30.26F WCI  21
$$

...NORTHERN ILLINOIS...


CITY           SKY/WX    TMP DP  RH WIND       PRES   REMARKS
CHICAGO-OHARE  FAIR      23  12  62 CALM      30.41S
CHICAGO-MIDWAY PTCLDY    25  14  63 W5        30.42F WCI  19
MOLINE         FAIR      22  17  81 S3        30.39F
ROCKFORD       CLEAR     19  12  74 S6        30.41F WCI  11
PEORIA         FAIR      27  17  66 CALM      30.42F
$$

NOTE: "FAIR" INDICATES FEW OR NO CLOUDS BELOW 12,000 FEET WITH NO
SIGNIFICANT WEATHER AND/OR OBSTRUCTIONS TO VISIBILITY. WIND
SPEEDS ARE IN MILES-PER-HOUR.



USA.gov is the U.S. government's official web portal to all federal, state and local government web resources and services.